TimeEDT,TemperatureF,Dew PointF,Humidity,Sea Level PressureIn,VisibilityMPH,Wind Direction,Wind SpeedMPH,Gust SpeedMPH,PrecipitationIn,Events,Conditions,WindDirDegrees,DateUTC
12:54 AM,36.0,32.0,86,30.07,10.0,Calm,Calm,-,N/A,,Clear,0,2012-10-12 04:54:00
1:54 AM,46.9,32.0,56,30.05,10.0,SW,4.6,-,N/A,,Clear,220,2012-10-12 05:54:00
2:54 AM,48.0,30.9,52,30.02,10.0,SW,5.8,-,N/A,,Clear,220,2012-10-12 06:54:00
3:54 AM,48.0,30.9,52,30.00,10.0,SW,8.1,-,N/A,,Clear,220,2012-10-12 07:54:00
4:54 AM,44.1,34.0,68,30.01,10.0,Calm,Calm,-,N/A,,Overcast,0,2012-10-12 08:54:00
5:54 AM,48.9,33.1,54,30.01,10.0,Variable,6.9,-,N/A,,Overcast,0,2012-10-12 09:54:00
6:54 AM,46.0,37.9,73,30.04,8.0,Variable,4.6,-,0.03,Rain,Light Rain,0,2012-10-12 10:54:00
7:11 AM,44.6,39.2,81,30.03,5.0,Variable,4.6,-,0.02,Rain,Light Rain,0,2012-10-12 11:11:00
7:54 AM,43.0,39.0,86,30.08,9.0,NW,5.8,-,0.04,Rain,Light Rain,310,2012-10-12 11:54:00
8:54 AM,42.1,37.9,85,30.11,7.0,NNW,4.6,-,0.06,Rain,Light Rain,330,2012-10-12 12:54:00
9:54 AM,42.1,37.9,85,30.11,10.0,Calm,Calm,-,0.01,Rain,Light Rain,0,2012-10-12 13:54:00
10:54 AM,43.0,37.0,80,30.12,10.0,WNW,5.8,-,0.00,,Overcast,290,2012-10-12 14:54:00
11:12 AM,44.6,39.2,81,30.11,10.0,NW,8.1,-,N/A,,Overcast,310,2012-10-12 15:12:00
11:54 AM,46.9,37.9,71,30.13,10.0,Variable,6.9,-,N/A,,Scattered Clouds,0,2012-10-12 15:54:00
12:54 PM,48.0,28.0,46,30.14,10.0,NNW,13.8,24.2,N/A,,Partly Cloudy,340,2012-10-12 16:54:00
1:54 PM,50.0,27.0,41,30.14,10.0,NNW,12.7,18.4,N/A,,Scattered Clouds,330,2012-10-12 17:54:00
2:54 PM,48.0,24.1,39,30.17,10.0,NW,8.1,24.2,N/A,,Partly Cloudy,320,2012-10-12 18:54:00
3:54 PM,46.9,24.1,41,30.19,10.0,NNW,15.0,24.2,N/A,,Scattered Clouds,330,2012-10-12 19:54:00
4:54 PM,46.9,21.0,36,30.21,10.0,NNW,13.8,25.3,N/A,,Overcast,340,2012-10-12 20:54:00
6:54 PM,41.0,19.9,43,30.30,10.0,NNW,10.4,23.0,N/A,,Clear,340,2012-10-12 22:54:00
7:54 PM,37.9,19.0,47,30.33,10.0,NNW,3.5,-,N/A,,Clear,330,2012-10-12 23:54:00
8:54 PM,36.0,19.9,52,30.36,10.0,Variable,3.5,-,N/A,,Clear,0,2012-10-13 00:54:00
9:54 PM,33.1,21.0,61,30.38,10.0,Calm,Calm,-,N/A,,Clear,0,2012-10-13 01:54:00
10:54 PM,34.0,21.0,59,30.39,10.0,SW,3.5,-,N/A,,Clear,230,2012-10-13 02:54:00
11:54 PM,30.0,21.9,72,30.41,10.0,SW,4.6,-,N/A,,Clear,230,2012-10-13 03:54:00